Louisville Bowman, KY

10:16 PM EDT on April 23, 2017 (GMT -0400)
Bowman

Weather History for KLOU - July, 2012

Change the Weather History Date:

Monday, July 2, 2012

  Actual Average Record
Temperature  
Mean Temperature 85 °F 78 °F  
Max Temperature 99 °F 87 °F 99 °F (2012)
Min Temperature 71 °F 69 °F 55 °F (1948)
Degree Days  
Heating Degree Days 0 0  
Month to date heating degree days 0 0  
Since 1 June heating degree days 6 3  
Since 1 July heating degree days 0 0  
Cooling Degree Days 20 13  
Month to date cooling degree days 42 26  
Year to date cooling degree days 753 478  
Since 1 June cooling degree days 377 331  
Growing Degree Days 34 (Base 50)    
Moisture  
Dew Point 67 °F    
Average Humidity 62    
Maximum Humidity 90    
Minimum Humidity 33    
Precipitation  
Precipitation 0.00 in 0.10 in 1.67 in (1980)
Month to date precipitation 0.65 0.20  
Year to date precipitation 24.45 24.26  
Sea Level Pressure  
Sea Level Pressure 29.99 in    
Wind  
Wind Speed 4 mph (SW)    
Max Wind Speed 14 mph    
Max Gust Speed 21 mph    
Visibility 10 miles    
Events Thunderstorm    
T = Trace of Precipitation, MM = Missing Value Source: NWS Daily Summary

Daily Weather History Graph

Daily Weather History Graph

Search for Another Location

Airport or City:

Trip Planner

Search our weather history database for the weather conditions in past years. The results will help you decide how hot, cold, wet, or windy it might be!

Date:

Astronomy

Jul. 02, 2012 Rise Set
Actual Time 6:23 AM EDT 9:09 PM EDT
Civil Twilight 5:52 AM EDT 9:41 PM EDT
Nautical Twilight 5:12 AM EDT 10:20 PM EDT
Astronomical Twilight 4:28 AM EDT 11:04 PM EDT
Moon 8:12 PM EDT (7/2) 5:09 AM EDT (7/2)
Length of Visible Light 15h 48m
Length of Day
14h 45m
Waxing Gibbous, 98% of the Moon is Illuminated
Jul 2
Waxing Gibbous
Jul 3
Full
Jul 10
Last Quarter
Jul 19
New
Jul 26
First Quarter

Hourly Weather History & Observations

Time (EDT) Temp. Heat Index Dew Point Humidity Pressure Visibility Wind Dir Wind Speed Gust Speed Precip Events Conditions
12:53 AM 73.9 °F - 70.0 °F 87% 29.93 in 10.0 mi South 4.6 mph - N/A   Clear
1:53 AM 73.9 °F - 66.9 °F 79% 29.95 in 10.0 mi Calm Calm - N/A   Clear
2:53 AM 73.9 °F - 68.0 °F 82% 29.96 in 10.0 mi Calm Calm - N/A   Clear
3:53 AM 73.0 °F - 68.0 °F 84% 29.97 in 10.0 mi Calm Calm - N/A   Clear
4:53 AM 72.0 °F - 68.0 °F 87% 30.00 in 10.0 mi ESE 4.6 mph - N/A   Clear
5:53 AM 71.1 °F - 66.9 °F 87% 30.01 in 10.0 mi Calm Calm - N/A   Clear
6:53 AM 72.0 °F - 66.0 °F 81% 30.02 in 10.0 mi Calm Calm - N/A   Clear
7:53 AM 73.0 °F - 66.9 °F 81% 30.04 in 10.0 mi Calm Calm - N/A   Clear
8:53 AM 77.0 °F - 66.9 °F 71% 30.05 in 10.0 mi South 3.5 mph - N/A   Clear
9:53 AM 81.0 °F 83.3 °F 66.9 °F 62% 30.05 in 10.0 mi South 3.5 mph - N/A   Clear
10:53 AM 84.0 °F 86.3 °F 66.0 °F 55% 30.04 in 10.0 mi Variable 5.8 mph - N/A   Clear
11:53 AM 89.1 °F 91.3 °F 66.0 °F 46% 30.03 in 10.0 mi SW 6.9 mph - N/A   Clear
12:53 PM 91.0 °F 93.8 °F 66.0 °F 44% 30.02 in 10.0 mi WSW 6.9 mph - N/A   Clear
1:53 PM 93.0 °F 97.4 °F 68.0 °F 44% 30.01 in 10.0 mi Variable 3.5 mph - N/A   Clear
2:53 PM 93.9 °F 97.0 °F 66.0 °F 40% 29.99 in 10.0 mi SSW 3.5 mph - N/A   Clear
3:53 PM 96.1 °F 99.3 °F 66.0 °F 37% 29.97 in 10.0 mi NW 6.9 mph - N/A   Clear
4:53 PM 96.1 °F 99.9 °F 66.9 °F 38% 29.94 in 10.0 mi Calm Calm - N/A   Scattered Clouds
5:53 PM 97.0 °F 99.9 °F 64.9 °F 35% 29.93 in 10.0 mi NW 5.8 mph - N/A   Partly Cloudy
6:53 PM 98.1 °F 100.7 °F 64.0 °F 33% 29.92 in 10.0 mi North 3.5 mph - N/A   Clear
7:53 PM 95.0 °F 99.0 °F 66.9 °F 40% 29.93 in 10.0 mi East 5.8 mph - N/A   Clear
8:27 PM 93.2 °F 97.7 °F 68.0 °F 44% 29.97 in 10.0 mi SSW 12.7 mph 16.1 mph N/A Thunderstorm Scattered Clouds
8:53 PM 87.1 °F 89.2 °F 66.0 °F 49% 29.99 in 10.0 mi SW 11.5 mph 20.7 mph N/A   Overcast
9:53 PM 81.0 °F 83.8 °F 68.0 °F 65% 29.99 in 10.0 mi SW 4.6 mph - N/A   Clear
10:53 PM 80.1 °F 82.3 °F 66.9 °F 64% 30.02 in 10.0 mi WSW 10.4 mph - N/A   Clear
11:53 PM 78.1 °F - 66.9 °F 68% 30.02 in 10.0 mi SSW 4.6 mph - N/A   Clear